GEFSNGP_500_meanwind_192.txt.gz
Wind_Speed
13 13 13 14 15 15 16 15 16 16 17 18 19 19 19 19 19 18 18 18 18 17 17 18 18 17 17 17 15 14 13 13 12 12 12 13 14 14 15 16 16 16 16 16
14 14 14 15 15 15 16 16 16 17 18 19 20 19 19 19 19 18 17 17 18 17 17 17 17 16 16 15 14 13 13 12 12 12 13 13 14 14 15 15 16 16 17 17
15 15 16 16 16 15 15 16 17 18 19 20 19 19 19 19 19 18 18 18 18 17 16 17 16 16 15 14 12 12 12 12 12 13 13 13 13 14 15 15 16 17 17 18
15 15 15 16 15 15 16 17 18 19 19 19 19 19 19 19 19 18 18 18 17 17 17 17 16 15 14 13 12 11 12 12 12 12 13 14 15 15 15 16 17 17 18 19
16 16 17 16 16 16 17 18 18 19 19 20 19 20 19 19 19 18 17 17 17 17 17 16 15 14 13 13 12 12 12 13 12 12 13 14 15 15 15 16 17 17 19 19
16 17 18 17 17 17 17 18 19 19 19 19 19 19 18 18 18 17 16 16 16 17 17 16 14 13 13 13 13 12 12 12 12 12 13 14 15 15 16 16 17 18 19 19
17 17 18 18 18 17 17 18 19 19 19 18 18 18 18 18 18 17 16 16 16 16 15 14 13 13 13 13 13 12 11 11 11 12 13 14 15 16 16 17 17 18 19 19
18 19 19 19 18 18 18 18 19 19 18 18 18 18 18 18 17 16 15 15 15 15 14 13 12 13 13 12 12 12 11 11 12 13 14 14 15 16 17 18 18 18 19 19
20 20 21 20 20 20 20 20 20 19 18 18 18 18 18 17 16 15 14 15 14 13 12 12 12 13 12 12 12 12 12 12 13 14 15 15 16 17 18 18 18 18 19 19
21 21 21 21 21 21 21 20 20 19 19 18 18 18 17 16 15 14 14 13 13 12 11 11 12 12 11 12 12 12 12 12 13 14 14 15 16 17 17 18 18 18 19 20
22 22 22 22 22 21 21 20 20 19 19 18 18 18 16 15 14 14 14 13 12 11 11 12 13 12 11 12 12 12 12 12 13 13 14 15 16 16 17 18 18 19 19 20
23 24 24 23 22 22 21 20 20 19 19 18 18 17 16 15 14 14 13 13 12 12 12 13 13 12 12 12 12 12 12 12 13 14 14 14 15 16 17 17 18 19 20 21
25 25 25 24 23 22 21 21 21 20 19 19 18 17 16 15 14 13 13 13 12 12 12 13 13 12 12 12 12 11 11 12 13 14 14 14 15 16 16 17 18 19 20 21
27 26 25 24 24 23 22 22 21 20 20 19 18 17 16 15 14 13 13 13 12 12 13 13 12 12 12 13 12 11 11 12 12 13 14 14 15 15 16 17 18 19 20 21
28 27 26 25 24 23 22 22 21 20 19 18 18 17 16 15 14 13 13 13 13 13 13 13 12 12 12 13 12 12 11 11 12 13 13 14 14 15 16 18 19 20 21 22
27 27 26 25 25 23 22 22 21 20 19 19 18 17 16 16 15 14 14 13 13 12 12 13 12 12 12 13 12 11 11 11 11 12 13 14 14 15 16 18 19 20 22 22
27 27 26 26 25 23 22 22 21 21 20 19 18 17 17 16 15 14 14 14 13 13 13 12 11 12 12 12 12 11 11 11 11 11 12 13 14 15 16 17 19 20 22 23
27 26 25 25 24 24 23 23 22 21 20 20 19 18 17 17 16 15 14 14 14 14 13 12 11 11 11 11 11 10 11 11 10 11 11 12 13 15 16 17 18 20 21 23
27 26 25 25 24 24 23 23 23 22 21 20 20 19 18 17 17 16 15 14 14 14 13 12 11 11 11 11 10 10 10 10 10 11 11 12 14 14 15 16 18 19 21 23
27 27 26 26 25 24 23 23 22 22 21 21 20 19 18 17 17 16 15 15 15 14 13 12 11 11 11 11 10 10 10 10 10 11 11 12 13 14 15 16 18 19 20 22
27 27 26 26 25 24 23 22 22 22 22 21 20 19 19 18 18 17 16 15 15 14 13 13 12 12 12 11 11 11 10 10 10 10 11 12 13 14 16 16 17 18 20 22
27 26 26 26 25 24 23 23 23 22 21 21 20 20 19 19 18 18 17 16 16 15 14 14 14 13 12 11 11 11 10 10 10 11 11 12 13 14 15 16 17 18 20 22
27 26 26 26 26 25 24 23 23 23 22 21 20 20 19 19 19 19 18 17 16 16 16 15 14 14 13 12 12 12 11 11 11 11 11 12 13 14 15 15 16 18 20 21
28 27 27 26 26 25 24 24 23 23 22 21 21 20 20 20 20 19 18 18 17 17 16 16 15 15 14 13 13 12 12 11 11 11 11 12 13 14 15 15 16 18 20 21
27 27 27 26 25 25 25 25 24 23 22 22 21 20 20 20 19 19 19 18 18 17 17 16 16 15 15 14 14 13 12 12 11 11 11 12 13 14 14 16 17 18 19 20
28 27 27 26 26 25 25 25 24 23 23 22 22 21 21 20 20 19 19 18 18 17 17 17 17 17 16 15 15 14 13 12 11 11 11 12 12 13 14 16 17 17 18 20
28 28 27 27 26 26 26 25 25 24 24 23 22 22 22 21 21 20 20 19 19 18 18 17 17 17 16 16 15 13 12 12 12 12 12 12 13 13 14 15 16 17 18 20

GEFSNGP_500_meanwind_198.txt.gz
Wind_Speed
14 14 14 15 14 15 15 15 16 16 18 19 20 20 21 21 21 21 20 19 18 19 19 19 19 19 19 19 18 17 16 16 15 13 14 14 13 14 15 15 15 16 17 16
14 15 15 15 16 15 15 15 16 17 18 18 19 20 21 20 21 20 20 19 18 19 18 18 19 19 19 18 17 17 16 15 13 12 13 13 13 13 15 15 17 18 18 17
15 14 15 15 16 17 16 15 16 17 18 19 20 21 21 20 20 19 19 18 18 18 19 19 18 19 18 18 17 16 16 13 12 13 13 14 13 14 15 16 17 18 18 18
16 15 15 16 17 17 17 16 16 18 18 19 20 21 21 20 19 18 18 18 18 18 18 18 18 18 18 17 16 15 14 13 12 13 13 13 14 14 16 17 17 17 18 18
16 15 17 17 17 18 18 17 17 19 19 20 20 21 20 19 18 18 18 17 18 19 18 18 18 17 17 17 16 14 14 13 13 13 13 14 15 16 16 17 17 17 18 18
17 17 17 18 18 19 19 19 19 19 20 21 21 21 20 19 18 18 18 17 17 17 17 17 17 17 16 16 15 14 13 13 13 13 13 14 15 16 16 16 17 18 18 19
18 19 19 20 19 19 20 21 20 20 21 21 21 21 20 19 18 18 18 18 17 16 16 16 16 16 15 15 15 14 13 13 14 13 14 15 15 16 17 17 18 18 19 20
20 20 19 22 21 21 22 21 21 21 21 21 21 20 20 19 18 18 17 17 16 16 16 16 15 15 15 15 14 14 13 13 14 14 14 15 16 17 18 18 18 19 19 20
22 21 21 22 22 22 22 22 22 21 20 21 21 20 20 19 18 17 16 15 15 15 15 15 15 14 14 15 14 13 13 13 14 14 15 16 16 17 18 18 19 19 19 20
23 23 23 23 23 22 22 22 22 22 21 22 22 21 20 19 18 17 16 15 14 14 15 14 14 14 14 14 13 13 14 14 14 14 15 16 17 17 18 18 18 18 19 20
25 24 23 23 23 22 22 23 23 23 22 22 22 22 21 20 18 17 16 15 15 14 14 14 14 14 14 14 13 13 14 15 14 14 14 15 16 16 17 17 17 18 19 20
25 25 24 24 24 24 24 24 24 24 23 23 23 23 22 20 19 18 16 15 15 15 14 14 14 14 14 13 13 13 14 14 14 13 14 14 15 15 16 17 17 19 20 21
26 26 26 25 25 25 25 25 25 25 24 24 24 23 22 21 19 18 16 16 15 15 15 15 15 14 13 13 13 13 14 14 14 14 15 14 15 15 15 16 18 19 20 21
28 27 27 27 27 26 26 26 26 26 25 25 24 23 22 21 20 18 17 17 16 16 16 15 15 14 14 14 13 13 14 14 14 14 14 14 14 15 16 17 18 19 20 21
28 28 28 28 28 27 27 27 26 26 25 25 24 23 22 21 20 19 18 18 17 16 16 15 15 14 14 14 14 13 14 14 14 13 14 14 14 15 16 17 18 19 20 21
28 28 28 28 28 27 27 26 26 25 25 24 24 23 23 21 20 19 18 18 17 17 15 15 15 15 14 14 14 13 13 13 13 13 14 14 15 15 16 17 18 20 20 21
29 29 28 27 27 26 26 26 25 25 25 24 23 23 22 20 20 19 19 18 18 17 16 15 15 14 14 14 14 13 13 12 12 13 14 15 15 15 16 17 18 19 20 21
29 29 29 28 27 27 26 26 26 25 24 23 23 22 21 21 20 20 20 18 17 16 16 15 14 14 14 13 13 13 12 13 13 13 14 14 15 15 16 16 17 18 19 20
29 29 28 28 28 27 27 26 25 25 24 23 22 22 21 21 21 20 20 18 17 17 17 16 15 14 14 14 13 13 13 12 12 13 13 14 14 15 16 16 17 17 19 20
29 29 28 28 28 28 27 26 26 25 25 24 23 23 21 21 21 21 20 19 18 18 18 17 16 15 15 15 14 13 13 12 12 12 13 13 14 15 16 16 16 18 20 21
29 29 29 28 28 28 28 27 26 26 25 25 24 23 22 22 22 21 20 19 19 19 18 18 17 16 16 15 15 14 13 13 12 13 12 13 14 15 16 16 16 18 19 21
29 29 29 29 28 28 28 28 27 27 26 25 25 24 23 23 22 22 21 21 20 19 19 18 18 17 17 16 16 15 14 14 13 13 13 14 14 15 16 16 16 17 19 21
30 30 29 29 29 29 28 28 28 28 27 26 26 25 24 24 23 23 22 22 21 20 19 18 18 17 17 17 16 16 15 15 14 14 15 15 15 15 16 16 17 18 19 21
31 30 30 29 29 29 29 28 28 28 27 27 26 25 25 24 24 23 23 23 22 22 21 20 19 19 18 17 17 17 17 16 16 16 15 15 15 15 16 16 18 19 20 21
31 30 29 28 28 29 29 28 28 28 27 26 26 25 25 24 24 24 23 23 23 23 22 21 20 20 20 19 19 18 18 18 17 17 15 15 16 16 16 17 18 19 20 21
32 31 30 30 29 29 29 29 28 27 27 27 26 25 24 24 25 25 24 24 24 23 23 22 21 20 20 20 19 18 18 18 17 16 16 16 16 17 16 17 19 20 20 21
31 31 30 30 29 29 29 29 29 28 27 26 25 25 25 25 25 25 24 24 24 24 23 22 21 21 20 20 19 18 18 17 17 17 17 17 17 17 17 18 19 20 20 20

GEFSNGP_500_meanwind_204.txt.gz
Wind_Speed
15 15 15 14 13 12 13 13 13 12 12 13 14 15 16 17 17 18 18 16 16 16 16 15 16 16 17 16 15 15 15 14 14 14 13 13 12 12 12 13 14 15 15 15
14 15 14 13 12 12 13 13 13 13 13 14 15 16 17 17 17 17 17 16 15 15 15 15 16 16 16 16 15 15 15 14 13 13 13 13 12 12 12 13 15 15 15 15
14 14 13 12 12 13 14 14 13 14 14 15 16 17 17 16 17 17 16 15 15 15 15 15 16 16 16 16 15 15 15 14 13 13 13 13 12 12 13 14 14 14 14 15
14 14 13 12 13 14 14 14 14 15 15 16 16 17 17 16 16 16 15 15 16 15 15 16 16 16 16 15 15 16 15 14 13 13 12 13 13 13 13 13 14 14 15 15
14 13 13 13 14 14 15 15 14 14 14 15 16 16 16 16 16 16 16 16 16 16 16 16 16 16 15 15 15 16 15 14 13 13 12 13 13 13 13 14 14 14 15 15
15 15 15 14 14 15 15 15 15 15 16 16 16 16 16 17 17 17 16 16 16 16 16 16 16 16 15 15 16 15 14 13 13 13 13 14 14 13 13 14 14 15 15 15
16 16 15 15 15 15 16 16 16 17 17 17 17 18 18 18 17 17 17 17 17 16 16 16 16 16 15 15 15 14 13 13 13 12 12 13 13 14 14 14 14 14 15 15
17 17 17 16 16 16 17 17 17 17 18 18 19 19 19 19 19 18 18 18 18 17 16 16 16 15 15 15 14 14 13 13 13 13 13 13 13 13 14 14 14 14 15 16
19 19 19 18 18 18 18 18 18 19 19 19 19 20 20 20 20 20 19 19 18 17 16 16 15 15 15 14 13 13 13 13 13 13 13 12 13 13 14 15 15 14 15 16
21 20 20 19 20 20 20 20 20 20 20 19 20 21 21 21 21 21 20 19 18 17 17 16 16 15 15 14 13 13 13 13 13 13 13 13 13 13 14 14 14 15 16 17
22 22 22 22 22 22 22 22 22 22 22 21 21 22 22 22 21 20 19 19 18 17 17 16 16 15 14 13 13 13 13 13 13 13 13 13 14 13 14 15 15 16 16 17
24 24 24 23 23 23 23 23 24 24 23 22 22 23 23 22 21 21 19 18 18 18 18 17 16 15 14 13 14 14 14 13 13 13 13 13 13 14 14 15 16 16 16 17
26 26 25 25 25 25 24 24 24 24 24 23 23 23 23 22 22 20 19 18 18 18 18 17 16 15 15 14 14 13 13 13 13 12 12 12 13 14 14 14 15 16 17 18
27 27 27 27 27 27 26 25 24 24 24 23 23 22 22 22 21 21 20 19 19 18 17 16 16 15 14 14 14 14 14 13 13 12 13 12 13 13 14 14 15 16 17 18
27 28 28 29 28 27 26 26 25 24 24 23 22 22 22 22 21 21 21 20 19 18 17 16 15 14 15 15 15 14 14 13 13 12 13 13 13 14 14 14 15 15 16 17
27 27 27 28 28 27 27 25 25 24 23 23 23 22 22 21 21 20 20 19 18 17 17 16 15 15 15 15 15 15 14 14 13 13 13 13 13 13 14 14 15 15 16 17
27 27 27 27 26 26 26 26 25 25 24 23 23 22 22 21 20 19 19 18 18 18 17 17 16 16 16 16 16 15 14 14 14 14 13 13 13 13 14 14 15 16 17 18
27 28 27 26 26 26 26 26 26 25 25 24 24 22 22 21 20 20 19 19 18 18 18 18 18 17 17 16 16 16 15 15 14 14 14 14 13 13 13 13 14 16 17 18
27 27 27 27 27 28 27 27 26 26 25 25 24 23 23 22 22 21 20 20 19 19 19 19 19 18 18 17 16 16 15 15 15 15 15 14 13 13 13 14 15 16 18 19
28 27 27 27 27 27 27 26 26 25 25 24 24 24 24 23 23 22 22 21 20 20 20 20 20 19 19 18 18 17 16 15 15 15 14 14 13 14 14 14 15 17 18 19
28 29 28 28 28 27 26 26 25 25 25 25 25 25 25 24 24 24 24 23 21 21 20 20 20 20 19 19 18 18 17 16 15 15 14 14 14 14 14 15 16 18 19 20
28 28 29 29 28 26 26 25 26 25 25 25 25 25 25 25 25 24 24 23 22 21 20 20 20 20 19 19 19 18 17 17 16 16 15 15 15 15 15 16 17 18 19 20
28 28 28 28 28 27 27 26 26 26 26 25 25 26 26 26 25 25 23 22 22 21 20 20 20 20 19 19 18 18 18 18 17 17 16 16 16 16 16 17 18 18 19 19
28 28 28 28 29 29 28 27 27 27 27 27 26 26 25 25 25 24 23 22 22 22 21 21 21 20 20 20 19 19 18 18 17 17 16 16 16 16 17 18 18 18 19 20
29 29 28 27 27 27 27 27 27 26 27 26 26 26 26 25 25 24 23 22 22 22 22 22 22 22 21 21 20 19 19 18 18 18 17 17 17 17 18 18 19 19 19 20
28 28 28 28 28 29 28 28 28 28 27 26 26 25 25 24 24 24 23 23 22 22 22 22 21 21 21 20 20 20 19 19 18 18 18 18 18 18 18 18 18 19 20 20
29 28 28 28 28 29 29 28 28 28 28 28 27 26 25 24 23 23 23 22 22 21 21 21 21 20 20 19 19 19 20 19 19 19 19 19 18 18 18 18 19 19 20 19

GEFSNGP_500_meanwind_210.txt.gz
Wind_Speed
16 16 16 15 15 15 15 15 16 16 16 16 16 16 16 16 17 17 18 18 17 16 16 16 16 15 16 17 17 16 15 15 15 16 16 15 15 15 15 15 14 14 14 15
16 16 16 16 15 15 14 15 15 16 15 15 16 16 16 17 17 18 18 17 16 16 16 16 16 16 16 16 16 15 15 15 15 15 15 15 14 14 14 14 13 13 14 15
16 17 16 15 14 14 15 15 16 16 16 15 16 17 17 17 17 18 18 18 17 17 16 16 16 16 16 16 16 16 15 15 15 15 15 14 14 14 14 13 13 13 13 14
18 17 16 15 15 15 15 16 16 17 17 16 16 17 17 17 17 18 18 18 18 17 16 16 16 16 16 16 16 16 16 16 15 15 14 14 14 14 13 13 13 13 14 14
18 17 17 16 16 16 16 15 16 17 17 17 17 18 18 17 17 18 18 18 18 17 16 17 16 16 17 17 16 16 17 16 15 14 14 13 13 13 13 13 13 13 14 15
19 19 18 17 16 17 17 16 17 17 18 18 18 18 18 18 18 18 18 18 18 18 18 17 17 17 18 17 17 17 16 15 15 15 14 13 13 13 13 13 13 14 15 15
19 19 18 18 17 18 18 18 18 18 18 18 19 19 19 20 19 19 19 20 20 19 19 18 18 18 18 17 16 16 16 16 15 15 14 14 13 13 13 13 14 14 15 16
20 20 19 19 18 19 19 19 19 20 20 19 20 20 21 21 21 21 20 20 20 20 20 20 19 19 18 17 17 17 16 16 15 14 14 13 13 13 14 13 14 15 16 17
22 22 21 21 20 21 21 20 20 21 21 21 21 22 22 22 22 22 21 21 21 21 21 20 20 19 18 17 17 17 16 15 14 13 13 13 12 13 13 13 14 15 16 17
24 24 23 22 22 22 22 23 22 22 22 23 23 23 23 23 24 23 23 23 22 22 22 21 20 19 18 18 17 17 16 15 14 14 14 13 13 13 13 14 14 15 16 17
26 26 25 24 24 24 24 25 25 25 24 24 24 24 24 25 25 24 23 23 22 22 22 21 19 19 18 17 17 17 16 15 15 14 14 14 14 14 14 14 14 15 16 17
27 27 27 27 26 26 26 26 26 26 25 25 25 25 25 25 25 24 23 23 22 22 21 20 19 18 17 17 17 16 15 15 15 15 15 15 14 14 14 15 15 16 16 17
29 29 29 29 28 28 28 28 27 27 27 27 26 26 26 25 25 24 23 23 22 21 20 19 19 18 18 17 17 15 15 14 15 16 16 15 14 14 14 15 16 17 17 17
30 30 30 30 30 29 29 29 29 28 28 27 27 26 26 25 25 24 23 23 22 21 20 19 19 18 18 17 17 15 15 15 16 16 16 15 15 15 14 15 15 16 16 17
31 31 31 31 31 30 30 29 29 28 27 27 27 27 26 25 24 24 23 22 22 21 20 19 19 19 19 18 17 16 16 16 16 16 16 16 15 15 15 15 15 16 16 17
32 32 31 31 31 30 29 29 28 27 27 26 26 26 25 24 23 22 22 21 21 21 20 19 19 19 19 18 17 17 17 17 17 17 17 16 15 15 15 15 15 16 17 17
32 31 30 30 30 29 29 29 28 28 27 27 26 25 24 23 23 22 21 21 21 21 21 20 20 20 19 18 18 17 17 17 17 17 17 16 16 15 15 15 15 16 17 18
32 31 30 30 30 30 29 29 29 28 28 27 26 25 25 24 23 22 22 22 22 22 21 21 21 21 20 19 19 18 18 18 18 17 17 16 15 15 15 16 16 17 18 18
31 31 31 31 30 30 30 29 28 28 28 27 26 26 25 24 24 23 23 23 23 23 22 21 21 21 21 20 20 19 19 19 18 18 17 17 16 15 16 17 17 17 18 19
31 31 30 30 30 29 29 28 28 27 27 27 26 25 25 24 24 24 24 23 23 23 22 21 21 21 21 21 21 20 19 19 19 18 18 17 16 16 16 16 17 18 19 19
30 30 30 30 29 28 27 27 26 26 26 26 25 25 25 25 25 24 24 23 23 23 22 21 21 21 21 21 20 20 20 19 18 18 17 16 16 16 16 17 17 18 19 20
30 30 29 29 28 27 27 27 26 26 26 25 25 25 25 25 25 25 24 23 22 22 21 21 21 21 21 21 20 19 18 18 18 18 17 17 17 17 17 18 18 19 20 20
30 29 29 29 28 28 27 27 27 26 26 26 25 25 25 25 25 25 24 24 23 22 22 22 21 21 21 21 20 19 18 18 18 18 17 17 17 17 18 18 19 20 20 20
29 29 29 29 28 27 27 27 26 26 26 26 26 26 26 26 26 26 25 24 24 24 23 22 21 21 21 20 19 18 18 18 18 18 17 18 18 17 18 18 19 20 21 21
30 29 29 29 28 28 28 28 28 27 27 27 26 26 26 26 26 25 24 24 24 24 24 23 22 22 22 21 20 19 18 19 18 18 18 18 18 18 18 19 19 20 20 21
29 29 29 29 29 29 29 29 29 28 28 28 28 27 27 26 26 25 25 25 25 24 24 23 22 22 22 22 21 20 20 20 19 19 18 19 20 20 19 19 19 20 20 20
30 30 30 29 29 29 29 29 29 29 28 28 28 28 27 27 26 26 26 26 25 25 24 23 22 21 21 21 21 20 20 20 20 20 20 20 20 20 19 19 19 20 20 20

GEFSNGP_500_meanwind_216.txt.gz
Wind_Speed
15 16 16 16 15 15 15 14 14 15 16 16 17 16 16 15 16 16 16 17 17 17 17 16 15 15 14 13 14 14 14 13 13 13 13 13 12 12 12 12 12 13 13 13
15 15 16 16 15 15 15 15 15 16 16 16 16 16 16 16 16 16 17 17 17 17 16 15 15 14 13 14 14 14 14 13 13 13 12 12 12 12 12 13 13 13 13 13
15 15 16 16 15 15 15 15 15 15 16 16 15 16 16 16 16 16 17 17 16 16 16 15 15 14 14 14 14 14 13 13 12 12 12 12 12 12 13 13 13 13 13 13
15 16 17 16 16 15 15 15 15 15 15 16 16 16 16 16 16 17 18 17 17 16 15 15 15 15 15 14 14 13 13 13 13 12 12 12 13 13 13 13 13 13 13 14
16 17 17 17 16 15 15 15 14 15 15 15 15 16 17 17 17 17 17 17 16 16 16 15 15 15 15 14 13 13 13 13 14 13 13 13 14 13 13 13 13 14 14 14
18 17 17 17 16 15 15 15 15 15 16 16 16 16 17 17 18 18 18 17 16 16 16 16 16 16 15 15 15 14 14 13 14 14 14 14 14 14 14 13 14 14 14 14
18 18 18 17 16 15 16 16 16 16 16 17 17 17 18 18 18 18 19 18 18 18 17 17 17 17 16 16 15 15 14 14 15 15 15 15 14 14 14 13 14 14 14 15
18 19 19 18 18 17 17 17 17 17 17 17 18 18 19 19 19 19 19 19 19 18 18 17 17 17 17 16 16 15 15 15 16 15 15 14 14 13 13 14 14 15 15 15
20 20 20 19 19 19 19 19 18 19 19 19 19 19 20 20 20 20 20 20 19 19 18 18 18 18 17 17 16 16 16 16 16 16 15 14 14 13 13 14 14 15 15 15
22 22 21 21 21 21 20 20 20 20 20 20 20 20 20 21 21 21 21 20 20 20 19 18 18 18 18 17 17 17 17 16 15 15 14 14 14 14 14 15 15 15 15 16
24 24 23 22 23 23 22 22 22 22 22 22 22 21 22 22 22 22 21 21 21 20 20 19 18 18 18 18 18 18 17 16 15 14 14 14 13 13 13 14 15 14 15 15
25 25 24 24 25 25 25 24 23 24 24 24 24 23 23 23 23 23 22 22 21 21 20 19 19 18 18 18 18 17 17 16 16 15 15 14 14 13 14 14 14 13 13 13
27 26 26 25 26 25 25 25 24 25 25 25 24 24 24 24 24 24 23 22 22 21 21 20 19 18 19 19 18 18 17 16 16 15 15 15 14 14 14 14 14 14 13 13
28 27 27 26 26 26 26 25 25 25 25 25 25 25 25 25 25 24 23 22 21 21 20 20 19 19 19 18 18 17 17 17 17 17 16 16 15 14 14 14 14 14 14 14
29 29 28 28 27 27 27 26 26 26 25 25 25 25 25 25 25 24 23 22 21 20 19 20 20 19 19 19 18 17 17 17 17 17 16 16 15 14 14 14 14 14 14 14
29 29 28 28 28 27 27 27 27 27 26 25 25 25 25 25 24 24 22 21 20 20 20 20 20 19 19 18 18 17 17 17 17 17 16 16 15 14 14 14 14 14 14 15
30 29 29 29 28 28 27 27 27 27 27 26 26 26 25 24 24 24 22 21 21 21 20 20 20 20 19 19 18 17 17 16 16 16 16 16 15 14 14 15 15 15 15 15
29 29 29 29 29 28 28 27 27 27 27 26 26 26 25 24 23 23 22 22 21 21 21 21 20 20 19 19 18 17 17 17 16 16 15 14 14 14 15 15 15 15 15 15
28 28 28 28 28 28 28 28 27 27 27 27 26 25 25 24 24 23 22 22 22 22 21 21 21 20 20 19 18 18 17 17 17 16 16 15 15 16 16 16 16 16 16 16
27 27 27 26 26 27 27 27 27 26 26 26 25 24 23 23 23 22 22 22 22 22 22 21 20 20 20 19 18 18 17 17 16 16 16 16 16 16 16 17 17 16 16 16
25 25 24 24 24 25 25 26 25 25 24 24 23 23 23 22 22 22 21 21 21 21 21 21 20 20 20 20 19 19 18 18 17 17 17 17 16 17 17 17 17 17 17 18
25 25 25 24 24 25 25 25 24 24 24 23 23 23 23 22 22 22 22 22 21 21 21 20 20 20 20 20 20 19 19 18 18 18 17 17 17 17 17 18 17 17 18 18
25 25 24 24 24 24 24 24 24 24 24 23 23 23 23 23 23 23 23 23 22 21 21 21 20 20 20 20 20 20 19 19 19 19 19 19 18 18 18 18 18 18 18 18
25 25 24 24 24 24 23 24 23 23 23 23 23 23 23 23 22 22 23 23 23 22 22 22 21 20 20 20 21 20 21 21 21 21 21 21 20 20 20 19 19 19 19 19
26 25 25 25 25 25 24 24 24 24 24 24 24 24 24 24 23 22 22 22 22 22 21 21 21 21 21 21 21 21 21 21 21 21 21 21 22 21 21 20 20 20 20 20
27 26 26 25 25 25 25 25 25 25 25 25 26 26 25 25 25 24 23 23 22 22 22 22 21 21 22 22 22 22 22 21 21 21 21 22 22 22 22 21 21 21 20 20
27 27 27 27 26 26 26 26 26 26 26 26 27 27 28 27 26 25 25 24 23 23 23 23 22 22 22 22 22 22 21 21 21 21 22 22 22 22 22 21 21 20 20 20

GEFSNGP_500_meanwind_222.txt.gz
Wind_Speed
15 15 15 16 16 15 15 16 15 16 17 19 20 20 20 20 21 21 21 21 21 20 19 18 17 17 16 16 16 16 16 15 15 15 16 15 16 16 15 16 16 16 16 17
18 16 17 17 17 16 16 16 16 17 18 20 20 20 19 20 21 21 20 20 20 19 18 18 17 17 16 16 16 16 16 15 15 15 15 14 15 15 16 16 17 17 18 18
18 17 17 17 16 16 17 17 17 18 18 19 20 20 20 20 20 20 20 19 19 19 18 18 17 17 16 16 16 16 15 15 14 14 14 14 15 16 16 16 17 17 17 17
18 18 20 18 17 17 19 19 19 19 18 19 20 20 20 21 20 20 19 19 19 18 18 17 17 16 16 16 16 15 15 15 15 15 15 15 16 16 15 16 16 17 17 17
19 19 19 18 18 18 19 20 19 19 19 19 19 20 21 20 20 20 20 19 18 18 18 17 17 16 17 17 16 16 15 15 16 16 16 16 16 16 16 17 17 17 17 17
21 20 19 20 19 18 19 20 19 18 18 18 20 18 20 20 20 20 19 18 17 17 18 18 17 17 17 17 17 17 17 17 16 16 16 16 17 17 17 18 18 18 18 18
22 21 21 22 21 20 20 21 20 19 19 20 19 19 19 20 20 19 19 18 18 18 18 18 18 17 17 17 17 18 18 17 16 17 17 17 17 17 17 17 17 17 18 18
23 23 22 22 22 22 21 21 21 20 20 20 19 20 20 21 21 20 20 19 19 19 19 19 19 18 18 18 18 18 18 18 17 17 18 18 18 18 17 17 17 17 18 18
25 25 25 25 24 24 23 23 22 21 21 21 22 22 22 22 22 23 22 21 21 20 20 20 20 20 19 19 19 19 19 18 18 18 18 19 19 18 18 18 18 18 18 18
27 27 26 26 25 25 25 24 24 22 21 22 23 23 23 24 24 23 23 23 23 22 21 21 20 20 20 20 19 19 19 19 19 19 19 18 18 19 19 18 18 18 18 18
29 29 28 28 27 26 26 26 26 25 24 25 25 25 25 25 25 25 25 24 23 22 22 21 21 20 20 20 20 20 20 20 20 19 19 19 19 20 19 18 18 18 18 18
31 31 30 29 28 27 27 27 27 27 26 26 26 26 26 26 26 26 26 25 23 23 23 22 21 21 20 21 20 20 19 19 19 18 19 19 19 19 18 18 18 17 17 16
32 32 30 30 29 28 28 28 28 27 26 26 26 26 27 27 27 27 26 25 24 24 23 23 23 22 21 21 21 20 19 19 19 19 19 19 19 18 18 18 18 17 16 15
31 31 30 29 29 28 28 27 27 27 27 27 27 27 27 27 27 26 26 26 25 24 24 24 23 22 22 21 21 20 19 19 19 19 18 18 18 17 17 17 17 15 15 15
32 31 30 30 29 28 28 28 28 28 28 28 27 27 27 27 26 26 26 26 26 25 24 23 23 22 22 22 21 20 20 19 19 19 18 18 17 17 16 16 15 14 14 14
31 30 30 29 29 29 29 29 28 28 28 28 28 27 27 26 26 26 25 25 25 23 23 23 23 23 22 21 21 20 20 19 19 19 19 18 18 17 17 16 15 14 15 15
30 30 30 30 29 29 28 29 29 28 28 28 28 28 27 27 26 25 25 25 25 24 23 24 24 24 23 22 22 21 21 20 20 19 19 18 18 18 17 16 15 15 15 15
29 29 29 30 29 29 29 29 28 28 28 28 28 28 27 27 26 25 24 24 25 25 25 25 24 24 23 22 22 21 21 21 20 20 20 19 19 18 17 17 16 16 16 16
30 29 29 28 28 28 27 27 27 27 27 26 26 26 26 26 26 25 26 25 25 25 25 25 24 23 23 23 22 22 22 21 21 21 20 20 19 19 19 18 17 17 17 17
29 29 29 29 29 28 27 27 27 27 26 26 26 26 26 26 25 25 25 25 25 24 24 23 23 23 23 23 23 23 22 22 22 21 20 20 19 19 19 18 18 18 18 19
28 28 29 29 29 28 28 27 27 26 26 26 26 25 25 25 25 25 24 23 23 23 23 23 22 22 23 23 23 23 23 22 21 21 20 20 20 20 20 20 20 20 20 20
27 28 28 29 29 28 28 28 27 26 26 25 25 25 25 25 25 24 23 22 22 22 22 22 21 21 21 22 22 22 22 21 21 21 21 21 21 21 21 21 21 21 21 22
28 28 28 28 28 28 28 28 27 26 26 25 25 25 24 24 23 22 22 22 22 22 21 21 21 21 21 21 21 21 22 22 21 21 21 21 21 21 21 21 21 22 21 21
27 27 28 28 28 28 28 27 27 27 26 25 25 24 23 23 23 22 21 21 21 22 21 21 21 22 22 22 22 22 21 21 21 21 21 22 22 22 22 22 22 21 21 21
27 27 28 27 27 27 27 27 27 27 26 25 25 24 24 23 23 23 23 23 23 23 23 23 22 22 22 22 22 22 22 22 22 22 22 22 23 23 23 23 23 22 22 22
26 26 26 26 26 26 25 26 26 26 26 25 25 24 24 24 24 23 24 24 25 24 24 24 24 24 23 23 23 23 23 23 23 23 22 23 23 23 23 23 24 23 22 22
26 26 26 25 25 25 25 25 25 25 25 25 25 25 25 24 25 25 25 25 26 25 25 25 24 24 24 24 24 24 24 24 23 23 22 22 23 23 23 22 22 23 22 22

GEFSNGP_500_meanwind_228.txt.gz
Wind_Speed
16 18 18 17 16 17 19 19 19 18 19 18 18 18 18 18 18 17 17 17 18 17 17 16 15 14 14 14 14 14 14 14 14 15 15 15 15 15 15 14 14 14 13 13
17 17 18 18 18 19 20 21 21 20 20 19 18 18 18 18 17 18 17 17 18 17 17 16 15 14 14 14 15 15 15 15 15 15 15 15 15 15 15 15 14 14 14 14
19 19 20 20 19 19 21 21 21 21 20 19 19 19 19 19 19 19 17 17 17 17 17 17 16 15 15 15 15 16 16 15 14 14 15 15 15 14 14 14 14 13 13 14
22 22 22 20 19 20 21 21 21 21 20 20 20 19 19 19 20 19 18 17 18 18 18 17 17 17 17 17 17 16 16 15 15 15 14 14 14 14 14 14 14 14 14 15
24 23 22 20 19 20 20 20 21 21 19 19 19 19 18 18 19 19 18 18 19 20 18 18 18 18 17 17 17 17 16 16 16 16 15 15 15 15 14 14 14 14 15 15
25 25 23 20 20 20 19 20 20 20 19 19 19 18 18 19 19 19 19 19 19 19 18 19 18 18 18 18 18 17 17 17 16 16 16 15 15 15 15 15 15 15 16 16
26 26 25 22 21 20 20 19 19 19 19 19 19 19 19 18 19 19 19 19 19 19 19 18 18 19 19 19 18 18 17 17 16 16 16 16 16 16 16 16 16 16 17 18
27 27 26 24 23 22 21 21 19 18 19 21 20 19 19 19 19 19 19 20 21 20 19 19 19 20 20 19 19 18 18 17 17 17 16 16 17 17 17 17 17 17 18 19
27 26 26 24 23 23 22 22 21 21 21 22 21 21 21 22 22 21 21 21 21 20 20 20 20 20 20 19 19 20 19 18 17 17 17 18 18 18 19 19 19 19 20 19
27 27 27 26 25 25 25 24 24 24 23 24 23 22 23 23 23 23 23 22 22 22 21 20 20 21 21 20 20 20 19 18 18 18 18 18 18 19 20 20 19 19 19 19
28 28 29 28 27 26 26 25 24 25 26 25 25 25 25 25 24 24 24 23 23 23 23 22 22 22 21 20 19 19 19 18 19 19 19 18 19 19 20 20 20 19 19 18
28 28 28 28 28 27 27 26 26 26 26 26 26 26 25 25 25 25 24 23 23 23 23 23 23 23 23 21 20 20 19 19 20 20 20 20 20 20 20 20 19 19 19 18
28 29 30 29 28 28 28 27 26 26 25 25 25 25 26 25 24 24 24 23 23 23 23 23 23 23 22 21 21 21 20 20 20 20 21 21 21 21 20 20 19 19 18 17
30 30 29 28 27 27 27 27 27 26 25 26 27 26 26 26 26 25 24 23 22 22 23 23 23 22 22 21 21 21 21 20 20 20 21 21 21 22 21 20 19 18 17 16
29 29 29 28 27 26 26 26 26 26 26 26 26 27 27 26 26 25 25 24 23 23 23 23 23 23 22 21 21 21 21 22 21 21 21 21 21 22 21 20 19 18 17 16
26 27 27 27 27 27 27 26 26 26 25 25 26 26 26 26 26 26 25 24 24 24 24 24 24 24 23 22 22 22 22 22 22 22 22 21 21 20 20 19 18 17 17 17
25 25 25 25 26 27 27 26 26 25 25 25 25 25 25 25 25 25 25 24 24 24 24 24 24 24 24 23 23 23 22 23 23 22 21 21 21 20 19 18 18 17 17 17
25 25 25 24 25 25 26 26 26 26 25 25 25 24 24 23 23 23 23 23 23 24 25 25 24 24 24 24 24 23 23 23 22 21 21 20 20 19 18 17 17 16 17 16
23 24 25 25 26 26 26 26 26 26 26 26 26 25 25 24 24 23 23 23 23 24 24 25 25 24 24 24 24 23 23 22 21 21 21 20 19 19 19 18 17 17 17 17
23 24 24 25 26 26 27 27 27 27 26 26 25 25 25 25 24 24 24 24 24 25 25 25 24 24 24 24 24 23 22 21 21 21 20 20 20 20 19 19 18 18 17 17
23 23 23 23 24 25 26 26 26 27 26 25 25 25 25 25 25 24 24 24 24 24 24 24 23 23 23 23 23 22 22 21 21 21 20 20 19 19 19 18 18 18 17 17
24 24 24 25 26 26 26 25 25 26 26 25 25 25 24 24 25 25 24 24 24 24 23 23 23 23 22 21 21 21 21 21 21 21 20 20 19 19 19 19 19 18 18 18
25 25 26 26 27 26 26 25 25 25 25 24 24 24 24 24 24 24 24 24 23 23 22 22 22 22 21 21 21 21 20 20 20 21 20 20 20 20 20 19 19 19 18 18
26 26 27 26 26 26 25 25 25 25 25 24 24 25 25 24 23 23 22 22 22 22 22 22 22 21 21 20 21 20 20 20 20 20 20 20 20 20 20 20 19 19 18 17
24 25 25 25 25 24 24 24 23 23 23 23 23 24 24 23 23 22 22 22 22 22 22 22 21 21 21 21 21 21 21 21 21 21 21 20 20 20 20 20 19 19 18 18
23 23 24 23 23 23 23 23 22 21 21 21 21 22 22 22 23 22 22 22 21 21 22 22 22 22 22 22 22 22 22 22 21 21 21 20 20 20 20 20 20 19 19 18
22 22 22 23 23 23 22 22 22 22 22 21 21 21 21 22 22 22 22 22 22 22 22 22 22 23 22 22 22 22 22 22 21 21 21 21 21 21 20 20 19 18 18 18

GEFSNGP_500_meanwind_234.txt.gz
Wind_Speed
18 19 19 20 21 21 22 22 22 21 20 19 19 18 18 18 18 17 17 17 17 17 17 16 16 15 15 15 15 15 15 15 15 15 15 15 15 15 14 14 14 14 14 14
21 21 21 21 22 22 22 22 21 21 20 19 19 19 18 18 18 18 17 16 16 16 16 16 15 14 15 15 15 15 15 15 15 15 15 15 15 15 14 14 14 14 15 15
23 23 23 22 22 22 22 22 22 22 20 19 20 19 19 19 18 18 18 17 17 17 17 16 16 16 16 17 15 15 16 16 16 15 15 15 15 15 15 15 15 15 16 16
25 25 26 23 23 23 24 23 22 22 21 21 20 20 19 19 18 18 17 17 17 18 17 16 16 17 17 17 17 16 16 16 16 16 15 15 15 15 15 15 15 16 17 17
26 26 27 25 24 24 24 23 22 22 21 21 20 20 18 18 17 17 16 17 17 17 17 17 17 17 18 18 17 17 16 17 17 17 16 16 15 15 16 16 16 17 17 17
26 26 26 24 23 23 23 23 21 21 21 20 20 19 18 18 17 16 17 17 18 18 18 18 19 19 19 18 17 17 17 17 17 17 17 16 16 16 17 17 17 17 17 18
26 25 24 23 22 22 23 22 22 22 22 21 21 20 19 18 18 17 17 18 18 19 19 19 19 19 18 18 18 18 18 18 17 17 17 17 17 17 17 17 17 17 17 18
26 26 25 24 24 24 23 23 22 22 22 22 21 21 19 18 18 18 18 18 19 19 20 20 20 20 19 19 19 19 18 18 18 18 18 17 17 18 18 18 18 18 19 19
27 27 26 26 26 25 25 24 23 23 23 23 22 22 21 20 20 20 20 20 20 20 21 21 21 21 20 20 20 20 19 19 18 18 18 18 18 18 19 19 19 19 20 20
29 28 27 27 27 26 26 26 25 24 24 24 24 23 22 21 21 21 21 22 21 22 22 22 22 21 21 21 21 21 20 20 19 19 19 19 19 19 19 20 20 20 20 20
29 29 28 28 28 28 27 26 26 25 25 26 25 24 23 22 23 23 23 23 22 22 22 22 22 22 22 22 21 21 20 20 20 20 20 20 20 19 20 20 21 22 21 21
28 28 28 28 28 28 28 28 27 27 27 26 25 25 25 25 24 24 24 23 23 23 23 23 23 24 24 24 23 22 21 22 21 21 21 20 20 20 21 21 21 22 21 21
28 28 28 28 27 27 28 28 28 27 27 26 26 25 25 25 24 23 23 23 23 24 24 25 25 26 25 25 24 23 23 23 23 23 23 22 21 22 22 22 22 21 21 21
28 28 27 27 27 27 27 28 28 28 27 26 26 25 25 24 23 23 23 23 24 24 24 25 25 26 26 25 24 24 24 24 24 24 24 23 23 23 23 23 22 22 21 21
28 28 27 26 27 26 26 27 27 26 26 25 24 24 24 23 23 22 23 23 24 25 25 24 24 25 24 24 24 24 24 24 25 24 24 23 23 23 23 23 23 22 21 21
26 26 26 25 25 25 25 25 25 25 25 24 24 24 23 23 23 23 24 24 25 24 24 24 23 23 23 24 24 24 25 25 25 25 24 24 23 23 23 23 23 22 22 21
23 23 23 24 24 24 24 24 24 24 25 25 25 24 24 24 24 24 25 25 24 24 24 24 24 24 24 24 24 24 25 25 25 24 24 24 23 23 23 23 22 22 22 21
23 23 22 23 24 23 23 23 23 22 22 23 23 24 25 25 25 25 25 25 24 24 24 24 24 24 24 24 24 25 25 25 24 24 24 24 23 23 22 21 21 21 21 19
22 23 23 24 24 24 24 23 23 22 22 22 23 23 23 24 25 25 25 24 23 23 22 22 23 23 23 23 24 24 24 23 23 23 22 22 22 21 21 21 20 20 19 19
21 22 22 23 24 24 24 23 23 23 22 22 23 23 23 23 23 24 24 24 24 23 22 22 23 23 23 23 23 23 23 23 22 22 22 22 21 21 20 20 20 20 19 19
21 21 22 23 23 24 24 24 24 23 22 23 23 24 23 23 23 24 24 24 24 24 23 23 23 23 24 24 23 23 23 23 22 22 22 22 21 20 19 19 19 19 18 18
22 22 23 24 24 24 24 24 24 23 23 23 23 24 24 24 24 24 24 24 24 24 24 24 25 25 25 24 23 23 23 23 23 23 22 21 21 21 20 19 19 19 18 18
22 22 22 23 23 23 23 23 23 23 23 23 24 24 24 24 24 24 24 24 25 25 25 25 25 25 24 23 23 23 23 23 23 22 21 21 20 20 20 20 20 19 18 18
21 22 22 22 22 22 22 23 23 24 24 23 24 24 23 22 23 23 23 23 24 24 24 24 24 24 23 23 23 23 23 22 22 22 22 21 20 20 20 20 20 20 19 19
20 21 21 21 22 22 23 23 22 22 23 23 23 23 22 22 22 23 23 23 22 22 22 23 23 24 24 23 23 22 22 22 22 22 22 21 20 20 20 21 20 20 20 20
19 19 19 20 20 21 22 22 22 22 23 24 24 24 23 23 23 23 23 23 23 23 23 23 23 24 24 23 23 22 22 21 22 22 21 20 20 21 21 21 21 21 21 21
19 19 18 19 19 20 21 21 21 21 22 22 23 23 23 24 24 24 24 23 24 24 23 23 23 23 23 23 22 22 22 22 21 21 21 20 20 21 20 20 21 21 21 21

GEFSNGP_500_meanwind_240.txt.gz
Wind_Speed
20 20 20 20 20 20 20 20 19 18 18 17 17 17 17 17 17 17 17 17 16 15 15 15 16 15 13 13 13 13 13 14 14 14 14 14 14 14 14 14 14 15 15 15
21 21 21 21 21 20 20 19 19 19 19 19 18 18 18 18 18 17 17 17 17 17 17 16 16 15 14 14 14 14 14 14 14 14 14 14 15 14 14 14 14 15 15 15
20 21 21 23 21 20 20 20 19 19 19 19 18 18 17 17 18 18 18 18 18 18 17 18 17 16 15 15 16 16 15 16 16 15 15 15 15 15 15 15 15 15 15 14
21 21 23 23 22 21 21 20 20 20 19 19 18 18 18 18 18 18 18 18 18 18 18 18 18 17 16 16 17 17 17 17 17 16 15 15 15 16 16 16 15 15 15 15
23 23 24 24 22 21 20 20 20 20 20 19 18 18 18 18 18 18 19 19 19 19 19 19 18 18 16 16 17 18 19 18 17 17 17 17 17 17 17 17 16 16 16 16
24 24 24 25 23 22 22 22 21 21 21 20 19 19 19 19 19 19 19 19 18 19 19 18 18 17 17 17 18 19 19 18 18 18 18 18 18 17 17 18 18 18 17 17
23 24 25 26 24 23 24 24 23 22 22 21 20 20 19 19 19 20 20 20 20 20 19 19 19 18 18 18 18 18 18 18 18 18 18 18 19 18 18 18 19 19 19 18
24 24 26 26 25 25 24 23 24 23 22 21 21 20 19 19 19 19 20 20 20 20 20 20 20 20 20 19 19 19 19 19 18 19 19 19 20 20 20 20 20 20 20 20
25 25 25 26 25 25 25 25 24 23 22 22 21 21 20 20 20 20 20 20 20 20 20 20 20 20 21 21 21 21 21 20 20 20 21 21 21 21 21 21 21 21 21 22
25 26 26 27 26 25 25 24 23 23 23 22 22 22 21 21 21 21 21 20 20 20 20 20 20 21 21 21 21 21 22 22 22 22 22 22 22 22 22 21 21 21 21 21
27 27 28 27 26 26 25 25 24 24 24 24 23 23 23 22 22 22 21 21 21 21 21 21 21 22 22 22 22 22 23 23 23 23 22 22 22 22 22 22 21 21 21 22
25 26 26 26 26 25 25 25 24 25 25 24 24 24 24 23 23 22 22 22 22 22 22 22 22 22 22 22 22 22 23 24 24 24 23 24 24 24 23 22 21 21 21 22
24 24 25 25 25 25 24 24 25 25 25 25 25 25 25 24 23 23 23 23 23 23 23 22 22 23 22 22 22 23 24 24 25 25 24 24 24 24 23 21 21 21 21 21
23 23 24 24 24 25 25 24 24 24 25 25 25 25 25 24 24 24 23 23 23 23 22 22 22 22 22 22 22 23 24 24 24 25 25 24 24 23 22 21 21 21 21 21
21 22 23 23 24 24 24 24 24 24 25 25 25 24 24 24 24 24 23 23 23 22 22 21 21 22 22 22 23 23 23 24 25 25 24 23 23 22 22 22 22 22 21 21
20 20 21 23 23 23 22 23 24 24 23 24 23 23 23 23 23 24 23 22 22 22 22 22 21 21 22 22 23 23 24 24 25 25 23 23 21 21 21 21 21 21 21 21
21 21 21 21 22 22 22 22 22 22 22 22 22 22 22 22 22 21 21 21 21 21 21 21 21 21 22 22 23 23 23 24 24 24 23 22 22 22 22 21 21 20 21 21
20 20 22 22 22 22 22 22 22 22 22 22 21 22 22 21 21 21 20 20 20 20 21 21 21 22 22 22 23 23 23 23 23 22 22 22 22 23 23 22 21 20 20 19
20 20 20 21 21 21 20 22 23 23 22 22 22 22 22 22 22 22 21 21 22 21 21 22 22 22 22 23 24 24 23 23 22 22 22 22 22 22 22 21 20 19 19 19
18 18 19 19 19 19 20 21 21 21 22 22 23 23 23 23 23 24 23 23 23 23 23 23 23 23 23 22 22 21 21 21 20 21 22 22 22 22 21 21 20 19 19 19
17 18 18 18 19 19 20 20 21 21 21 22 22 23 23 23 23 23 22 22 22 22 22 23 23 23 24 23 22 22 22 22 21 22 22 22 21 21 21 20 21 20 19 19
18 18 18 19 19 19 20 21 21 21 22 22 22 23 23 22 22 22 21 21 21 22 22 22 23 23 23 23 23 22 22 22 22 22 22 22 22 21 20 20 20 20 19 19
19 19 19 19 19 19 20 20 21 21 21 22 23 23 22 22 21 21 20 21 21 21 22 22 22 23 22 22 21 20 20 20 20 21 21 21 20 20 20 20 20 21 21 20
19 20 20 21 20 20 20 20 20 20 21 21 21 21 21 21 21 20 20 20 21 21 22 21 21 21 21 20 20 20 20 19 19 20 21 20 20 21 21 21 21 21 21 21
19 19 20 20 19 20 20 20 20 20 20 20 20 21 21 21 21 21 20 20 20 21 22 22 22 21 20 20 19 19 19 19 19 20 20 20 20 21 22 21 21 22 22 22
19 19 19 19 19 19 19 19 19 19 19 19 19 20 20 20 21 21 21 21 21 21 21 21 21 20 20 20 19 19 18 19 20 20 21 21 21 21 21 22 22 22 22 22
18 18 19 19 19 18 18 18 18 18 18 18 19 19 19 20 21 21 22 22 22 21 21 20 20 19 19 19 19 19 20 20 20 21 21 22 22 21 21 21 21 22 22 22

GEFSNGP_500_meanwind_246.txt.gz
Wind_Speed
22 21 21 22 22 23 24 23 23 23 23 23 22 23 21 20 20 21 20 20 19 19 19 18 17 16 16 17 17 17 17 17 17 17 18 18 19 19 18 18 18 18 18 19
23 21 22 22 21 23 23 24 25 26 25 23 22 23 23 22 21 20 19 19 19 18 18 18 18 17 16 16 17 18 18 18 18 18 19 19 19 19 18 18 18 18 18 18
25 24 26 26 24 24 26 26 25 26 23 22 23 24 24 23 21 21 20 20 20 19 19 18 18 18 18 17 17 18 18 18 18 19 19 20 20 19 19 19 19 19 19 19
25 26 27 23 23 25 25 26 26 25 24 24 23 24 23 22 21 21 21 20 18 19 19 19 19 19 18 19 19 19 18 18 18 19 19 19 19 19 19 20 21 20 20 19
27 26 24 22 22 23 26 26 26 24 23 22 23 23 23 23 22 22 20 20 21 20 20 20 20 19 19 19 19 20 20 19 19 19 19 19 19 20 20 20 20 20 19 19
27 26 25 24 23 24 26 27 25 24 24 23 24 24 22 23 22 22 21 22 22 21 21 20 20 19 19 19 20 20 21 21 21 20 20 20 20 20 20 20 20 20 20 20
26 26 27 26 24 24 26 25 25 25 24 23 24 24 23 23 22 22 22 21 20 20 20 20 20 20 20 20 21 21 21 22 23 22 21 21 21 21 21 21 21 21 20 20
27 27 27 25 26 27 27 26 25 26 26 26 25 25 24 22 21 22 22 22 21 20 20 20 20 21 21 21 21 21 21 22 22 21 21 21 21 21 21 22 21 20 20 20
26 27 25 26 28 28 28 28 27 27 25 25 25 25 24 22 22 22 22 22 22 21 22 22 22 21 21 21 21 21 21 21 21 21 21 21 21 21 21 21 21 20 20 20
26 26 25 26 27 28 28 27 28 27 26 26 25 25 25 24 23 23 22 23 23 22 22 22 22 22 21 22 23 23 23 23 22 21 21 21 21 21 22 21 21 20 20 21
27 27 25 25 26 27 28 27 26 26 26 26 25 25 25 26 25 24 23 23 23 22 22 22 22 22 22 22 23 23 23 23 23 22 22 22 21 22 22 21 21 21 21 21
25 26 27 27 26 27 26 26 25 25 27 27 26 25 26 25 25 24 24 24 23 23 23 22 22 22 22 22 22 22 22 22 22 22 22 22 23 23 22 21 21 21 21 21
24 24 25 26 25 26 27 26 26 26 27 27 27 26 26 25 25 24 24 24 23 23 23 23 23 22 22 22 22 22 22 22 23 23 22 23 23 23 23 22 22 22 22 22
24 24 24 25 25 25 24 24 25 26 26 26 26 26 26 26 25 24 24 24 24 24 24 24 23 23 23 22 22 22 23 23 23 23 23 23 23 23 24 23 23 22 22 22
23 23 23 23 23 24 25 25 25 25 26 26 26 26 26 25 24 24 24 24 24 24 24 24 23 23 24 23 23 22 22 22 23 23 23 23 23 23 23 23 23 23 22 22
22 23 22 22 23 23 24 25 25 26 27 26 26 26 25 24 24 25 24 24 24 24 23 23 24 24 24 24 23 23 22 22 22 22 23 23 24 24 24 23 23 23 22 22
20 21 21 21 21 21 21 21 21 22 23 23 23 23 24 24 24 25 25 25 24 23 23 23 23 23 23 23 23 22 22 22 22 22 23 24 24 24 24 23 23 23 22 21
20 21 21 21 22 22 21 20 21 22 23 23 23 23 23 23 24 25 25 25 25 24 23 23 23 23 23 23 23 23 23 23 23 23 23 23 24 25 25 24 23 22 22 22
19 19 19 20 20 20 22 22 22 22 23 23 23 23 23 23 23 24 25 25 24 24 23 23 23 23 23 23 24 24 24 24 24 24 24 23 23 23 23 23 23 24 23 22
18 18 18 19 20 21 22 23 23 23 23 23 24 24 24 24 24 24 24 24 24 24 24 23 23 23 24 24 24 24 24 24 25 24 24 24 23 23 23 23 23 23 22 23
19 19 19 19 19 20 21 22 23 24 23 23 23 24 24 25 25 24 24 24 23 24 24 23 23 24 24 25 25 25 25 25 25 24 23 22 22 22 22 22 22 22 22 22
19 19 20 20 20 21 21 21 22 23 23 23 23 23 24 24 24 23 23 23 23 23 23 23 23 23 24 25 25 26 25 25 24 23 22 22 22 22 23 22 21 21 21 21
20 20 20 20 20 21 21 21 21 22 22 22 22 22 22 23 23 23 23 22 22 22 22 23 23 23 24 25 26 26 25 24 23 22 22 23 23 23 22 21 21 21 21 21
20 19 19 19 19 19 19 18 19 20 20 20 21 21 21 21 22 21 22 22 22 22 23 24 24 24 24 24 24 24 23 22 21 21 21 21 21 21 21 21 21 21 21 21
19 19 19 18 18 18 18 17 17 17 17 18 19 19 20 20 20 20 21 22 23 24 24 24 25 24 24 24 24 23 22 21 21 20 20 21 20 20 21 21 21 21 22 22
18 18 18 18 18 18 17 17 17 17 18 18 18 19 19 19 19 20 21 22 22 23 23 23 23 23 22 22 22 22 21 21 21 21 21 22 22 21 22 22 22 22 22 22
18 18 18 18 18 18 18 17 17 18 18 17 18 18 18 18 19 20 21 21 21 21 21 21 21 21 21 21 21 20 20 20 21 21 21 21 21 21 22 22 22 22 22 23

GEFSNGP_500_meanwind_252.txt.gz
Wind_Speed
25 25 25 26 25 24 25 25 24 23 23 22 22 21 22 21 18 17 15 16 17 16 15 15 16 16 15 15 15 15 15 15 15 15 15 16 17 17 17 17 17 18 18 18
26 26 26 26 25 25 25 25 25 25 24 22 23 20 19 19 18 16 16 16 17 17 16 16 16 16 15 15 15 15 15 15 15 15 16 17 17 17 18 18 18 19 19 19
27 27 28 28 26 26 25 24 23 25 24 21 21 20 20 19 17 17 16 17 16 16 16 16 16 16 16 16 15 15 15 16 16 16 17 18 18 18 19 19 20 20 20 20
29 29 30 26 25 25 24 22 22 23 23 21 19 19 19 20 19 19 18 17 17 17 17 18 18 17 16 16 16 16 16 16 16 16 17 18 18 19 20 20 21 21 21 21
30 30 29 27 25 22 21 21 22 21 20 20 18 19 19 19 19 19 19 18 17 18 19 19 18 17 18 17 17 17 18 16 16 17 18 18 18 19 20 20 20 20 21 21
29 29 28 26 24 22 22 23 22 21 20 19 19 19 18 18 18 19 19 18 18 19 19 19 19 18 18 19 18 18 17 17 18 19 19 19 19 19 20 20 20 20 20 21
28 28 27 25 24 23 23 23 22 21 21 21 21 20 19 19 18 18 18 19 19 19 19 19 19 19 19 19 19 19 19 20 19 19 19 19 19 20 20 20 20 20 20 21
26 26 25 25 24 23 23 23 22 21 20 21 22 21 21 20 20 19 19 20 19 18 18 19 19 19 19 18 18 19 19 19 19 20 19 19 19 20 21 21 21 21 20 19
24 24 24 25 25 25 25 24 23 22 21 22 22 21 21 21 19 19 19 19 19 19 19 19 19 20 20 20 20 20 20 20 20 20 20 20 20 21 21 21 21 21 20 20
24 24 24 23 23 24 24 24 23 22 22 22 22 22 21 20 20 21 20 19 20 20 20 20 21 21 21 21 21 20 20 20 20 20 21 21 21 21 21 21 21 21 21 21
23 23 24 24 23 23 23 23 23 22 22 22 22 23 23 22 22 21 20 20 20 20 20 21 21 22 22 22 21 21 20 21 21 21 21 21 20 21 21 21 21 21 21 21
22 23 24 24 23 24 23 23 23 23 22 21 21 21 21 21 21 20 20 20 20 20 21 21 21 21 21 21 21 22 22 21 20 20 21 21 21 21 20 21 22 22 22 21
21 22 23 23 22 22 22 22 22 21 21 21 21 21 20 20 20 20 20 20 20 20 20 20 20 20 20 19 20 20 21 20 20 20 20 21 21 21 20 21 22 22 22 22
21 22 23 22 21 20 20 20 21 21 21 21 21 21 20 19 19 19 19 19 20 20 20 20 20 19 19 19 20 20 20 21 21 21 21 21 21 21 21 21 22 22 22 22
20 21 21 21 20 20 19 20 20 20 20 20 20 20 20 20 20 20 20 19 20 20 20 20 20 21 21 20 20 21 21 21 21 21 21 21 21 21 21 21 21 21 21 21
19 19 19 20 20 20 19 19 18 18 19 20 20 20 20 20 19 19 20 20 20 20 20 21 21 21 22 22 21 22 21 21 21 22 22 22 21 21 21 21 20 20 20 19
18 19 19 19 20 20 20 20 19 18 19 20 20 21 21 21 20 20 21 21 20 19 19 20 21 22 22 22 22 22 22 22 23 23 23 23 23 22 22 22 21 20 20 19
17 18 18 18 19 20 21 21 21 20 19 20 20 21 21 22 22 22 22 21 21 20 20 20 21 22 22 22 22 22 22 23 23 23 23 24 23 23 23 22 21 21 20 19
16 17 18 18 18 19 20 20 21 21 20 20 20 20 20 21 22 22 22 21 21 21 21 22 22 23 23 23 23 23 23 23 23 24 24 24 24 23 23 23 22 22 21 21
16 17 18 18 18 18 18 19 20 20 20 20 20 21 21 20 21 22 22 22 22 22 22 22 23 23 23 23 23 23 23 23 24 24 24 24 23 23 22 22 23 23 23 23
16 17 17 17 18 18 18 18 19 19 20 19 19 19 20 20 20 21 22 22 22 23 23 23 22 22 22 23 23 23 24 24 24 23 23 23 23 23 23 23 23 23 23 23
16 17 17 17 18 18 18 18 18 19 20 20 20 19 19 20 20 22 22 22 21 22 22 22 22 22 23 23 24 24 24 24 24 23 22 22 22 22 23 23 23 22 23 23
16 17 17 17 18 19 18 17 18 18 19 19 20 19 18 19 19 20 20 20 20 21 21 22 22 23 23 23 23 23 23 23 23 23 22 22 23 23 23 23 24 24 24 24
17 17 17 17 18 19 18 18 18 18 18 18 18 18 18 18 18 18 18 19 19 20 21 21 22 22 23 22 23 22 22 22 22 22 22 22 22 23 23 24 25 25 25 25
16 15 15 16 17 17 17 18 18 17 16 16 17 17 17 17 18 18 18 18 18 19 19 20 21 21 21 21 21 20 20 20 21 21 21 21 22 22 23 24 25 25 25 24
16 16 16 15 16 17 18 18 17 17 17 17 16 16 17 17 18 18 18 18 18 18 19 20 20 20 20 20 20 20 20 20 20 19 19 20 21 21 22 23 23 23 23 23
17 18 18 18 18 18 18 18 17 17 17 17 17 17 17 18 18 19 19 19 18 17 17 18 18 18 19 20 20 20 19 20 20 20 21 21 21 22 22 22 21 21 22 22